EW6800 Weather Reports


time (UTC)temp
C
wind
direction
speed
KPH
gust
KPH
rain 1hr
cm
rain 24hr
cm
rain mn
cm
humidity
%
barometer
mb
20260906050106 11 323 4.8 8.0 0.00 0.00 0.00 86 1015.6
20260906045547 12 327 3.2 6.4 0.00 0.00 0.00 84 1015.6
20260906045047 11 327 3.2 6.4 0.00 0.00 0.00 83 1015.6
20260906044559 11 327 4.8 8.0 0.00 0.00 0.00 83 1015.6
20260906044045 11 327 3.2 11.3 0.00 0.00 0.00 84 1015.6
20260906043545 12 331 4.8 11.3 0.00 0.00 0.00 84 1015.6
20260906043056 12 318 6.4 11.3 0.00 0.00 0.00 85 1015.6
20260906042545 12 316 6.4 12.9 0.00 0.00 0.00 84 1015.5
20260906042044 12 312 8.0 12.9 0.00 0.00 0.00 82 1015.4
20260906041557 12 315 6.4 12.9 0.00 0.00 0.00 81 1015.4
20260906041044 12 308 6.4 12.9 0.00 0.00 0.00 81 1015.3
20260906040544 12 315 8.0 12.9 0.00 0.00 0.00 81 1015.2
20260906040115 12 319 8.0 14.5 0.00 0.00 0.00 81 1015.3
20260906035543 12 313 8.0 14.5 0.00 0.00 0.00 83 1015.2
20260906035046 12 313 8.0 14.5 0.00 0.00 0.00 82 1015.2
20260906034559 12 303 6.4 14.5 0.00 0.00 0.00 82 1015.2
20260906034044 12 320 8.0 14.5 0.00 0.00 0.00 82 1015.1
20260906033545 12 311 8.0 14.5 0.00 0.00 0.00 81 1015.1
20260906033100 12 313 8.0 14.5 0.00 0.00 0.00 81 1015.0
20260906032546 12 296 8.0 12.9 0.00 0.00 0.00 81 1015.0
20260906032044 12 290 8.0 12.9 0.00 0.00 0.00 80 1014.9
20260906031606 12 298 6.4 12.9 0.00 0.00 0.00 80 1015.0
20260906031044 13 301 6.4 12.9 0.00 0.00 0.00 79 1014.9
20260906030544 13 293 4.8 12.9 0.00 0.00 0.00 79 1014.9
20260906025545 13 300 4.8 11.3 0.00 0.00 0.00 77 1015.0
20260906025044 13 288 4.8 12.9 0.00 0.00 0.00 76 1014.9
20260906024618 13 295 4.8 12.9 0.00 0.00 0.00 76 1014.9
20260906024043 13 300 6.4 12.9 0.00 0.00 0.00 76 1015.0
20260906023545 13 292 6.4 11.3 0.00 0.00 0.00 76 1015.1
20260906023055 14 307 4.8 14.5 0.00 0.00 0.00 75 1015.1
20260906022547 14 298 6.4 14.5 0.00 0.00 0.00 75 1015.1
20260906022044 14 305 8.0 14.5 0.00 0.00 0.00 76 1015.1
20260906021611 14 311 6.4 14.5 0.00 0.00 0.00 76 1015.2
20260906021044 15 299 9.7 14.5 0.00 0.00 0.00 75 1015.2
20260906020544 15 305 9.7 14.5 0.00 0.00 0.00 75 1015.2
20260906020106 15 312 8.0 14.5 0.00 0.00 0.00 75 1015.2
20260906015544 15 298 6.4 12.9 0.00 0.00 0.00 74 1015.1
20260906015048 15 296 4.8 12.9 0.00 0.00 0.00 73 1015.3
20260906014612 15 313 6.4 16.1 0.00 0.00 0.00 73 1015.3
20260906014044 15 302 9.7 16.1 0.00 0.00 0.00 71 1015.2
20260906013544 15 292 8.0 16.1 0.00 0.00 0.00 70 1015.3
20260906013100 16 311 6.4 16.1 0.00 0.00 0.00 69 1015.3
20260906012544 16 301 6.4 14.5 0.00 0.00 0.00 69 1015.2
20260906012046 16 322 6.4 14.5 0.00 0.00 0.00 68 1015.1
20260906011559 16 299 6.4 12.9 0.00 0.00 0.00 69 1015.3
20260906011044 16 295 6.4 14.5 0.00 0.00 0.00 69 1015.3
20260906010543 16 300 6.4 14.5 0.00 0.00 0.00 67 1015.3
20260906010113 16 290 8.0 16.1 0.00 0.00 0.00 67 1015.3
20260906005546 16 284 6.4 16.1 0.00 0.00 0.00 67 1015.1
20260906005044 16 309 8.0 14.5 0.00 0.00 0.00 66 1015.3
20260906004610 16 311 6.4 14.5 0.00 0.00 0.00 65 1015.2
20260906004044 16 305 4.8 16.1 0.00 0.00 0.00 64 1015.3
20260906003544 16 313 8.0 16.1 0.00 0.00 0.00 62 1015.2
20260906003118 17 291 9.7 17.7 0.00 0.00 0.00 61 1015.3
20260906002543 17 317 9.7 17.7 0.00 0.00 0.00 60 1015.2
20260906002046 17 311 9.7 14.5 0.00 0.00 0.00 58 1015.2
20260906001559 17 313 8.0 17.7 0.00 0.00 0.00 57 1015.2
20260906001043 17 296 9.7 20.9 0.00 0.00 0.00 57 1015.2
20260906000545 17 298 11.3 20.9 0.00 0.00 0.00 56 1015.2
20260906000103 17 313 12.9 20.9 0.00 0.00 0.00 56 1015.1
20260905235544 18 299 12.9 19.3 0.00 0.00 0.00 55 1015.1
20260905235044 18 305 9.7 17.7 0.00 0.00 0.00 55 1015.2
20260905234609 18 300 9.7 16.1 0.00 0.00 0.00 55 1015.2
20260905234046 18 307 8.0 16.1 0.00 0.00 0.00 54 1015.2
20260905233544 18 308 6.4 14.5 0.00 0.00 0.00 55 1015.2
20260905233101 18 296 6.4 16.1 0.00 0.00 0.00 56 1015.1
20260905232543 17 321 8.0 19.3 0.00 0.00 0.00 56 1015.2
20260905232045 17 297 9.7 19.3 0.00 0.00 0.00 58 1015.2
20260905231557 17 313 9.7 19.3 0.00 0.00 0.00 58 1015.2
20260905231043 17 312 11.3 17.7 0.00 0.00 0.00 59 1015.3
20260905230546 17 311 9.7 19.3 0.00 0.00 0.00 59 1015.4
20260905230058 17 296 11.3 19.3 0.00 0.00 0.00 59 1015.4
20260905225542 17 299 12.9 17.7 0.00 0.00 0.00 59 1015.4
20260905225043 17 288 11.3 17.7 0.00 0.00 0.00 60 1015.6
20260905224600 17 314 11.3 17.7 0.00 0.00 0.00 58 1015.4
20260905224042 18 303 11.3 17.7 0.00 0.00 0.00 58 1015.4
20260905223542 18 311 11.3 17.7 0.00 0.00 0.00 57 1015.5
20260905223057 18 300 11.3 20.9 0.00 0.00 0.00 56 1015.4
20260905222544 18 338 12.9 20.9 0.00 0.00 0.00 55 1015.5
20260905222043 18 311 11.3 19.3 0.00 0.00 0.00 55 1015.4
20260905221605 18 309 8.0 16.1 0.00 0.00 0.00 56 1015.4
20260905221045 18 317 9.7 14.5 0.00 0.00 0.00 57 1015.4
20260905220544 19 311 8.0 16.1 0.00 0.00 0.00 57 1015.4
20260905220106 19 300 8.0 16.1 0.00 0.00 0.00 58 1015.4
20260905215543 19 315 8.0 16.1 0.00 0.00 0.00 58 1015.5
20260905215047 19 313 9.7 17.7 0.00 0.00 0.00 57 1015.6
20260905214557 20 304 11.3 17.7 0.00 0.00 0.00 56 1015.5
20260905214042 20 319 9.7 16.1 0.00 0.00 0.00 54 1015.5
20260905213546 20 313 9.7 16.1 0.00 0.00 0.00 53 1015.5
20260905213058 20 323 8.0 16.1 0.00 0.00 0.00 52 1015.5
20260905212543 20 303 4.8 11.3 0.00 0.00 0.00 52 1015.6
20260905212043 20 308 4.8 12.9 0.00 0.00 0.00 51 1015.5
20260905211551 20 290 6.4 12.9 0.00 0.00 0.00 50 1015.6
20260905211043 20 311 6.4 11.3 0.00 0.00 0.00 52 1015.5
20260905210546 20 319 4.8 12.9 0.00 0.00 0.00 51 1015.6
20260905210103 20 294 6.4 12.9 0.00 0.00 0.00 49 1015.6
20260905205544 21 292 4.8 12.9 0.00 0.00 0.00 49 1015.6
20260905205044 21 312 4.8 12.9 0.00 0.00 0.00 47 1015.6
20260905204602 21 311 4.8 14.5 0.00 0.00 0.00 48 1015.6
20260905204045 21 319 6.4 14.5 0.00 0.00 0.00 47 1015.6
20260905203542 21 291 6.4 14.5 0.00 0.00 0.00 48 1015.6
20260905203057 21 323 4.8 12.9 0.00 0.00 0.00 48 1015.6
20260905202544 20 328 6.4 12.9 0.00 0.00 0.00 47 1015.6
20260905202043 20 298 4.8 11.3 0.00 0.00 0.00 50 1015.6
20260905201553 20 320 4.8 12.9 0.00 0.00 0.00 51 1015.6
20260905201044 20 309 6.4 12.9 0.00 0.00 0.00 50 1015.7
20260905200543 20 297 3.2 11.3 0.00 0.00 0.00 50 1015.7
20260905200104 20 311 4.8 11.3 0.00 0.00 0.00 51 1015.7
20260905195542 20 304 4.8 11.3 0.00 0.00 0.00 51 1015.8
20260905195043 21 315 6.4 11.3 0.00 0.00 0.00 49 1015.9
20260905194557 21 317 4.8 11.3 0.00 0.00 0.00 51 1015.8
20260905194044 20 317 3.2 12.9 0.00 0.00 0.00 51 1016.0
20260905193543 20 300 3.2 12.9 0.00 0.00 0.00 51 1016.0
20260905193107 20 334 3.2 12.9 0.00 0.00 0.00 51 1016.1
20260905192543 20 331 3.2 8.0 0.00 0.00 0.00 49 1016.1
20260905192044 20 310 1.6 9.7 0.00 0.00 0.00 50 1016.1
20260905191558 20 302 1.6 11.3 0.00 0.00 0.00 51 1016.2
20260905191045 20 221 3.2 11.3 0.00 0.00 0.00 50 1016.2
20260905190542 20 314 1.6 11.3 0.00 0.00 0.00 50 1016.2
20260905190103 20 313 4.8 11.3 0.00 0.00 0.00 49 1016.2
20260905185544 20 320 3.2 8.0 0.00 0.00 0.00 49 1016.3
20260905185046 20 319 3.2 8.0 0.00 0.00 0.00 49 1016.2
20260905184558 20 319 3.2 8.0 0.00 0.00 0.00 47 1016.3
20260905184044 20 349 1.6 8.0 0.00 0.00 0.00 47 1016.1
20260905183546 20 326 3.2 6.4 0.00 0.00 0.00 45 1016.2
20260905183059 20 294 1.6 6.4 0.00 0.00 0.00 43 1016.1
20260905182544 19 232 1.6 6.4 0.00 0.00 0.00 43 1016.1
20260905182045 19 300 3.2 6.4 0.00 0.00 0.00 44 1016.0
20260905181605 18 318 1.6 6.4 0.00 0.00 0.00 45 1016.1
20260905181045 18 0 3.2 6.4 0.00 0.00 0.00 47 1016.0
20260905180545 18 342 1.6 6.4 0.00 0.00 0.00 49 1016.0
20260905180051 18 311 1.6 6.4 0.00 0.00 0.00 48 1016.0
20260905175545 18 309 1.6 6.4 0.00 0.00 0.00 50 1016.0
20260905175045 18 285 1.6 6.4 0.00 0.00 0.00 51 1015.9
20260905174557 18 238 1.6 4.8 0.00 0.00 0.00 49 1015.9
20260905174046 18 271 1.6 4.8 0.00 0.00 0.00 49 1015.9
20260905173545 18 142 1.6 3.2 0.00 0.00 0.00 49 1015.9
20260905173052 17 0 0.0 3.2 0.00 0.00 0.00 49 1015.8
20260905172545 17 0 0.0 3.2 0.00 0.00 0.00 51 1015.8
20260905172045 17 0 0.0 3.2 0.00 0.00 0.00 51 1015.7
20260905171603 17 142 1.6 3.2 0.00 0.00 0.00 51 1015.7
20260905171045 17 142 0.0 8.0 0.00 0.00 0.00 51 1015.7
20260905170545 17 0 1.6 8.0 0.00 0.00 0.00 51 1015.6
20260905170107 17 125 3.2 8.0 0.00 0.00 0.00 46 1015.6
20260905165547 16 150 1.6 8.0 0.00 0.00 0.00 54 1015.6
20260905165044 16 147 3.2 8.0 0.00 0.00 0.00 54 1015.4
20260905164559 16 153 4.8 8.0 0.00 0.00 0.00 56 1015.5
20260905164045 16 154 1.6 6.4 0.00 0.00 0.00 55 1015.4
20260905163544 15 0 0.0 4.8 0.00 0.00 0.00 52 1015.5
20260905163052 15 0 0.0 4.8 0.00 0.00 0.00 53 1015.4
20260905162547 15 333 1.6 4.8 0.00 0.00 0.00 53 1015.5
20260905162045 15 333 1.6 3.2 0.00 0.00 0.00 53 1015.5
20260905161550 15 160 1.6 3.2 0.00 0.00 0.00 52 1015.6
20260905161045 16 160 1.6 3.2 0.00 0.00 0.00 51 1015.6
20260905160545 16 160 1.6 3.2 0.00 0.00 0.00 47 1015.4
20260905160101 16 160 0.0 4.8 0.00 0.00 0.00 47 1015.5
20260905155545 16 0 0.0 6.4 0.00 0.00 0.00 46 1015.4
20260905155046 16 160 1.6 6.4 0.00 0.00 0.00 44 1015.4
20260905154600 16 160 1.6 6.4 0.00 0.00 0.00 44 1015.3
20260905154045 16 160 3.2 8.0 0.00 0.00 0.00 43 1015.3
20260905153548 16 167 3.2 8.0 0.00 0.00 0.00 44 1015.2
20260905153053 15 158 1.6 8.0 0.00 0.00 0.00 44 1015.3
20260905152545 15 158 3.2 8.0 0.00 0.00 0.00 45 1015.2
20260905152046 15 161 4.8 8.0 0.00 0.00 0.00 45 1015.2
20260905151603 15 161 0.0 3.2 0.00 0.00 0.00 47 1015.0
20260905151045 15 161 1.6 3.2 0.00 0.00 0.00 47 1015.1
20260905150544 15 161 1.6 6.4 0.00 0.00 0.00 50 1015.1
20260905150100 15 161 1.6 6.4 0.00 0.00 0.00 50 1015.1
20260905145545 15 161 1.6 6.4 0.00 0.00 0.00 50 1015.1
20260905145044 15 161 1.6 6.4 0.00 0.00 0.00 50 1015.0
20260905144554 14 161 0.0 6.4 0.00 0.00 0.00 51 1015.0
20260905144049 14 161 3.2 6.4 0.00 0.00 0.00 50 1015.0
20260905143545 14 162 0.0 0.0 0.00 0.00 0.00 48 1015.0
20260905143056 13 0 0.0 0.0 0.00 0.00 0.00 50 1015.0
20260905142545 13 0 0.0 0.0 0.00 0.00 0.00 52 1015.1
20260905142045 13 0 0.0 0.0 0.00 0.00 0.00 51 1015.0
20260905141602 13 0 0.0 0.0 0.00 0.00 0.00 52 1015.0
20260905141048 13 0 0.0 0.0 0.00 0.00 0.00 54 1015.0
20260905140545 13 0 0.0 0.0 0.00 0.00 0.00 54 1014.9
20260905140058 13 0 0.0 0.0 0.00 0.00 0.00 54 1014.9
20260905135546 13 0 0.0 0.0 0.00 0.00 0.00 54 1014.8
20260905135049 13 0 0.0 0.0 0.00 0.00 0.00 54 1014.8
20260905134558 13 0 0.0 0.0 0.00 0.00 0.00 54 1014.7
20260905134045 13 0 0.0 0.0 0.00 0.00 0.00 56 1014.7
20260905133545 12 0 0.0 0.0 0.00 0.00 0.00 57 1014.7
20260905133052 12 0 0.0 0.0 0.00 0.00 0.00 57 1014.7
20260905132548 12 0 0.0 0.0 0.00 0.00 0.00 57 1014.6
20260905132046 12 0 0.0 0.0 0.00 0.00 0.00 57 1014.7
20260905131605 12 0 0.0 0.0 0.00 0.00 0.00 57 1014.6
20260905131045 12 0 0.0 0.0 0.00 0.00 0.00 58 1014.7
20260905130545 12 0 0.0 0.0 0.00 0.00 0.00 58 1014.7
20260905130059 12 0 0.0 0.0 0.00 0.00 0.00 58 1014.7
20260905125544 12 0 0.0 0.0 0.00 0.00 0.00 60 1014.7
20260905125044 13 0 0.0 0.0 0.00 0.00 0.00 58 1014.7
20260905124555 13 0 0.0 0.0 0.00 0.00 0.00 60 1014.8
20260905124044 13 0 0.0 0.0 0.00 0.00 0.00 58 1014.7
20260905123545 13 0 0.0 0.0 0.00 0.00 0.00 58 1014.9
20260905123108 13 0 0.0 3.2 0.00 0.00 0.00 58 1014.8
20260905122545 13 0 0.0 3.2 0.00 0.00 0.00 58 1014.8
20260905122047 13 0 0.0 3.2 0.00 0.00 0.00 58 1014.8
20260905121559 13 0 0.0 4.8 0.00 0.00 0.00 58 1014.7
20260905121045 13 328 1.6 4.8 0.00 0.00 0.00 58 1014.7
20260905120549 13 328 1.6 4.8 0.00 0.00 0.00 59 1014.7
20260905115544 13 328 1.6 4.8 0.00 0.03 0.00 57 1014.7
20260905115044 13 328 1.6 6.4 0.00 0.03 0.00 56 1014.6
20260905114555 13 328 3.2 8.0 0.00 0.03 0.00 55 1014.6
20260905114044 13 328 3.2 8.0 0.00 0.03 0.00 54 1014.5
20260905113544 13 328 3.2 8.0 0.00 0.03 0.00 53 1014.5
20260905113100 13 328 4.8 8.0 0.00 0.03 0.00 52 1014.4
20260905112545 13 317 4.8 8.0 0.00 0.03 0.00 51 1014.5
20260905112044 13 315 4.8 9.7 0.00 0.03 0.00 51 1014.5
20260905111645 13 316 4.8 11.3 0.00 0.03 0.00 51 1014.4
20260905111045 13 330 6.4 11.3 0.00 0.03 0.00 51 1014.5
20260905110545 13 313 6.4 9.7 0.00 0.03 0.00 53 1014.5
20260905110055 13 319 4.8 9.7 0.00 0.03 0.00 54 1014.5
20260905105545 13 320 6.4 12.9 0.00 0.03 0.00 55 1014.6
20260905105045 13 319 4.8 16.1 0.00 0.03 0.00 57 1014.5
20260905104601 13 305 6.4 16.1 0.00 0.03 0.00 58 1014.4
20260905104045 12 313 11.3 16.1 0.00 0.03 0.00 59 1014.5
20260905103547 12 317 11.3 14.5 0.00 0.03 0.00 61 1014.4
20260905103102 12 319 9.7 16.1 0.00 0.03 0.00 63 1014.5
20260905102544 11 322 9.7 16.1 0.00 0.03 0.00 66 1014.6
20260905102045 11 323 9.7 16.1 0.00 0.03 0.00 68 1014.6
20260905101559 11 320 9.7 14.5 0.00 0.03 0.00 72 1014.6
20260905101045 11 301 8.0 12.9 0.00 0.03 0.00 72 1014.6
20260905100544 11 317 8.0 12.9 0.00 0.03 0.00 70 1014.7
20260905100218 11 313 8.0 12.9 0.00 0.03 0.00 68 1014.7
20260905095543 12 323 8.0 14.5 0.00 0.03 0.00 67 1014.6
20260905095043 12 319 6.4 14.5 0.00 0.03 0.00 66 1014.7
20260905094558 12 303 8.0 12.9 0.00 0.03 0.00 63 1014.8
20260905094043 12 317 8.0 12.9 0.00 0.03 0.00 61 1014.7
20260905093547 12 317 8.0 14.5 0.00 0.03 0.00 60 1014.7
20260905093056 12 320 8.0 14.5 0.00 0.03 0.00 60 1014.9
20260905092546 12 311 9.7 16.1 0.00 0.03 0.00 59 1014.8
20260905092043 12 319 11.3 16.1 0.00 0.03 0.00 60 1014.9
20260905091604 12 313 11.3 16.1 0.00 0.03 0.00 60 1014.9
20260905091044 12 324 12.9 16.1 0.00 0.03 0.00 61 1015.0
20260905090544 12 321 12.9 16.1 0.00 0.03 0.00 60 1015.0
20260905090056 12 318 11.3 16.1 0.00 0.03 0.00 59 1015.0
20260905085545 12 304 11.3 16.1 0.00 0.03 0.00 60 1015.1
20260905085045 12 311 9.7 16.1 0.00 0.03 0.00 59 1015.2
20260905084553 12 306 9.7 16.1 0.00 0.03 0.00 58 1015.2
20260905084041 12 315 9.7 12.9 0.00 0.03 0.00 59 1015.1
20260905083543 12 314 6.4 12.9 0.00 0.03 0.00 60 1015.2
20260905083050 12 302 6.4 12.9 0.00 0.03 0.00 60 1015.3
20260905082543 12 315 8.0 12.9 0.00 0.03 0.00 60 1015.1
20260905082044 11 323 8.0 12.9 0.00 0.03 0.00 63 1015.2
20260905081604 11 327 4.8 9.7 0.00 0.03 0.00 65 1015.2
20260905081043 11 316 4.8 8.0 0.00 0.03 0.00 66 1015.2
20260905080543 11 327 3.2 8.0 0.00 0.03 0.00 67 1015.1
20260905075547 12 319 4.8 11.3 0.00 0.03 0.00 64 1015.2
20260905075041 12 319 6.4 12.9 0.00 0.03 0.00 61 1015.2
20260905074551 12 312 6.4 12.9 0.00 0.03 0.00 58 1015.3
20260905074043 12 310 8.0 12.9 0.00 0.03 0.00 58 1015.2
20260905073543 13 301 6.4 11.3 0.00 0.03 0.00 58 1015.2
20260905073100 13 317 6.4 9.7 0.00 0.03 0.00 57 1015.2
20260905072541 13 315 6.4 9.7 0.00 0.03 0.00 57 1015.2
20260905072043 12 315 4.8 12.9 0.00 0.03 0.00 57 1015.3
20260905071559 12 321 6.4 12.9 0.00 0.03 0.00 57 1015.2
20260905071043 12 318 6.4 12.9 0.00 0.03 0.00 58 1015.2
20260905070543 12 317 8.0 12.9 0.00 0.03 0.00 59 1015.3
20260905070100 12 313 8.0 12.9 0.00 0.03 0.00 60 1015.2
20260905065543 12 313 8.0 12.9 0.00 0.13 0.03 61 1015.1
20260905065040 13 319 6.4 12.9 0.00 0.13 0.03 58 1015.1
20260905064601 13 312 8.0 16.1 0.00 0.13 0.03 58 1015.2
20260905064040 12 315 9.7 16.1 0.00 0.13 0.03 58 1015.2
20260905063543 12 321 9.7 16.1 0.00 0.13 0.03 58 1015.1
20260905063103 12 316 8.0 14.5 0.00 0.13 0.03 60 1015.1
20260905062544 12 323 6.4 12.9 0.00 0.13 0.03 61 1015.2
20260905062044 12 321 8.0 12.9 0.00 0.13 0.03 61 1015.2
20260905061609 12 319 6.4 14.5 0.00 0.13 0.03 61 1015.3
20260905061043 12 313 6.4 16.1 0.00 0.13 0.03 61 1015.2
20260905060543 12 315 9.7 16.1 0.00 0.13 0.03 61 1015.2
20260905060058 12 321 9.7 17.7 0.00 0.13 0.03 63 1015.2
20260905055544 12 319 12.9 17.7 0.00 0.15 0.03 64 1015.1
20260905055043 12 321 12.9 17.7 0.00 0.15 0.03 66 1015.2
20260905054552 12 318 9.7 17.7 0.00 0.15 0.03 67 1015.3
20260905054047 11 298 11.3 16.1 0.00 0.15 0.03 69 1015.3
20260905053545 11 315 11.3 14.5 0.00 0.15 0.03 72 1015.4
20260905053103 11 316 11.3 14.5 0.00 0.15 0.03 79 1015.4
20260905052545 11 313 8.0 14.5 0.00 0.15 0.03 80 1015.4
20260905052044 11 305 9.7 16.1 0.00 0.15 0.03 79 1015.5
20260905051558 12 319 9.7 16.1 0.00 0.15 0.03 78 1015.5
20260905051043 12 309 11.3 16.1 0.00 0.15 0.03 78 1015.5
20260905050543 12 308 11.3 16.1 0.00 0.15 0.03 75 1015.6